SCP
1 0 0 0 0 0 1 0 0 1 1 1 1 0 1 1 1 1 1 1 0 0 0 0 0 0 0 0 0 0 0 0 0 0 0 0 0 0 0 -0 0 -0 -0
2 1 1 1 0 0 0 0 0 1 1 1 1 0 2 2 2 1 1 1 1 1 0 0 0 0 0 0 0 0 0 0 0 0 0 0 0 0 0 0 -0 -0 -0
2 3 2 1 2 1 1 1 1 1 2 2 1 2 2 1 2 2 1 1 1 1 0 0 0 0 0 0 0 0 0 0 0 0 0 0 0 0 0 -0 0 0 -0
6 4 4 3 1 2 1 2 2 2 2 2 2 2 3 4 3 2 1 1 1 0 1 0 0 0 0 0 0 0 0 0 0 0 0 0 0 0 0 0 -0 -0 -0
6 7 4 3 3 2 2 1 1 2 2 2 2 1 3 3 1 1 1 1 1 1 0 0 0 0 0 0 0 0 0 0 0 0 0 0 0 0 0 0 -0 -0 -0
8 6 6 3 3 3 2 1 2 2 2 2 1 1 3 1 1 0 0 0 1 1 1 0 0 0 0 0 0 0 0 0 0 0 0 0 0 0 0 0 0 0 -0
7 8 4 3 3 2 2 2 3 2 2 1 2 2 1 1 0 1 1 1 1 0 0 0 0 0 0 0 0 0 0 0 0 0 0 0 0 0 0 0 0 -0 -0
7 5 3 2 2 2 2 2 2 2 1 1 2 1 1 1 1 1 1 1 0 0 0 0 0 0 0 0 0 0 0 0 0 0 0 0 0 0 0 0 -0 -0 -0
5 3 2 2 3 2 1 2 2 2 1 1 1 1 1 1 1 1 1 0 0 0 0 0 0 0 0 0 0 0 0 0 0 0 0 0 0 0 0 -0 -0 -0 -0
2 2 2 2 3 2 2 2 2 1 1 1 2 1 1 1 1 1 0 0 0 0 0 0 0 0 0 0 0 0 0 0 0 0 0 0 0 -0 -0 -0 -0 -0 -0
2 1 1 2 2 1 2 1 1 1 1 1 1 1 0 0 0 0 0 0 0 0 0 0 0 0 0 0 0 0 0 0 0 0 0 -0 -0 -0 -0 -0 -0 -0 -0
2 1 1 1 2 1 2 2 2 2 2 1 1 0 0 0 0 0 0 0 0 0 0 0 0 0 0 -0 0 0 0 0 0 0 0 0 -0 -0 -0 -0 -0 -0 -0
2 1 1 1 1 1 2 3 3 2 1 1 0 0 0 0 0 0 0 0 0 0 0 0 0 0 0 0 0 0 0 0 0 0 0 -0 -0 -0 -0 -0 -0 -0 -0
2 1 1 1 1 1 3 3 2 1 1 0 1 1 0 0 0 0 0 0 0 0 0 0 0 0 0 0 0 0 0 0 0 0 0 0 -0 0 0 0 -0 -0 -0
1 1 1 1 1 2 2 2 1 1 0 0 0 0 0 0 0 0 0 0 0 0 0 0 0 0 0 0 0 0 0 0 0 0 0 -0 -0 0 0 0 0 0 -0
1 1 1 1 2 2 1 1 0 0 0 0 0 0 0 0 0 0 0 0 0 0 0 0 0 0 0 0 0 0 0 0 0 0 0 -0 -0 -0 0 0 0 -0 -0
1 1 1 1 1 1 1 0 0 0 0 0 0 0 0 0 0 0 0 0 0 0 0 0 0 0 0 0 0 0 0 0 0 0 -0 -0 -0 0 0 0 0 -0 0
1 1 1 1 0 0 0 0 0 0 0 0 0 0 0 0 0 0 0 0 0 0 0 0 0 0 0 0 0 0 0 0 0 0 0 -0 -0 -0 -0 0 0 -0 0
1 0 0 0 0 0 0 0 0 0 0 0 0 0 0 0 0 0 0 0 0 0 0 0 0 0 0 0 0 0 0 0 0 0 0 0 0 -0 -0 -0 0 0 0
0 1 0 0 0 0 0 0 0 0 0 0 0 0 0 0 0 0 0 0 0 0 0 0 0 0 0 0 0 0 0 0 0 0 0 0 0 0 -0 0 0 0 0
0 0 0 0 0 0 0 0 0 0 0 0 0 0 0 0 0 0 0 0 0 0 0 0 0 0 0 0 0 0 0 0 0 0 0 0 0 0 0 0 0 0 0
0 0 0 0 0 0 0 0 0 0 0 0 0 0 0 -0 0 0 0 0 0 0 0 0 0 0 0 0 0 0 0 0 0 0 0 0 0 0 0 0 0 0 0
0 0 0 0 0 0 0 0 0 0 0 0 0 0 -0 0 0 0 0 0 0 0 0 0 0 0 0 0 0 0 0 0 0 0 0 0 0 0 0 0 0 0 0
0 0 0 0 0 0 0 0 0 0 0 0 0 0 -0 0 0 0 0 0 0 0 0 0 0 0 0 0 0 0 0 0 0 0 0 0 0 0 0 0 0 0 0
0 0 0 0 0 0 0 0 0 0 0 0 0 0 -0 0 0 0 0 0 0 0 0 0 0 0 0 0 0 0 0 0 0 0 0 0 0 0 0 0 0 0 0
0 0 0 0 0 0 0 0 0 0 0 0 0 0 0 0 0 0 0 0 0 0 0 0 0 0 0 0 0 0 0 0 0 0 0 0 0 0 0 0 0 0 0
Wind_Speed_500mb
49 53 57 57 57 53 50 47 61 50 38 36 31 32 41 41 34 31 36 34 34 32 30 26 22 30 34 36 37 37 32 27 27 31 40 44 39 43 29 29 29 24 19
55 49 50 60 57 56 49 41 36 47 50 42 29 34 44 40 37 34 35 37 41 32 27 27 24 26 36 39 39 40 39 33 30 34 36 46 42 38 32 29 21 22 22
64 57 54 55 61 60 49 43 47 35 49 46 43 42 44 44 47 41 40 44 39 37 33 35 26 26 30 42 43 42 43 39 33 35 40 45 47 40 34 34 17 16 19
72 65 60 60 56 61 64 53 50 47 51 51 43 42 47 44 44 44 43 46 46 44 39 39 32 28 29 39 43 45 43 41 35 32 38 39 51 37 34 37 23 19 14
70 68 62 60 57 55 56 59 58 52 52 46 49 45 54 58 51 43 45 48 46 35 33 34 30 28 30 32 38 42 41 40 35 31 35 37 44 39 34 33 25 24 16
70 68 62 57 61 55 58 54 53 57 53 49 45 46 51 46 38 43 41 37 44 45 41 42 41 35 30 34 35 41 42 41 38 32 36 34 36 37 35 32 23 28 26
67 70 62 55 53 58 59 53 53 51 47 49 39 45 47 41 29 34 45 49 54 47 42 45 53 38 28 32 38 41 44 40 37 32 35 38 39 35 37 30 28 28 27
68 65 57 51 49 56 50 51 52 55 56 39 45 37 29 26 34 36 35 39 42 35 38 44 40 35 33 38 40 43 45 44 39 32 36 41 41 39 38 30 30 30 25
64 59 50 49 51 48 50 51 53 55 37 34 43 22 8 7 8 20 25 30 33 29 35 45 36 31 30 39 38 41 43 42 38 34 38 44 44 40 37 32 31 25 20
60 52 47 49 47 41 44 34 50 36 43 33 29 26 32 21 11 9 16 21 22 22 30 31 27 27 32 30 29 39 41 41 40 36 41 46 46 41 36 33 26 25 43
49 53 45 50 39 42 36 38 28 34 30 31 31 16 17 19 30 27 18 15 17 18 27 27 18 16 27 36 43 32 39 40 41 42 46 48 44 41 34 31 32 37 52
53 49 44 47 42 44 35 35 27 32 37 28 24 25 27 24 21 26 21 18 13 14 23 25 22 23 24 23 41 35 32 39 41 45 46 47 45 37 32 34 36 38 33
50 46 51 50 45 40 32 30 36 37 32 30 24 18 21 25 17 21 24 16 13 13 15 20 25 23 36 17 26 31 30 36 36 44 46 46 41 38 38 36 42 37 33
49 46 49 43 39 36 30 31 32 29 27 22 27 29 28 21 28 32 27 21 16 13 13 17 22 24 30 29 28 29 30 34 37 40 41 46 44 38 41 45 38 34 41
42 46 47 41 35 30 34 32 24 21 19 16 22 21 28 17 24 25 20 18 20 16 16 19 21 23 28 30 24 25 27 33 41 42 45 48 46 38 43 47 41 44 35
41 46 46 37 36 37 33 24 19 18 21 19 20 19 18 27 27 24 26 19 25 21 18 24 23 23 26 27 31 28 30 35 39 41 43 42 42 46 52 52 47 43 33
44 36 40 40 38 30 24 18 23 24 18 25 26 26 18 17 15 21 20 19 17 26 28 27 28 29 28 28 33 29 32 36 40 39 45 50 44 49 54 51 47 44 32
41 38 35 24 22 20 16 23 25 20 21 20 22 24 24 18 21 17 19 22 23 20 31 35 35 37 30 34 35 34 34 37 40 39 51 49 43 48 47 47 45 39 34
36 33 25 19 22 24 23 22 21 20 19 20 21 22 22 20 20 22 21 24 24 28 27 33 35 36 35 35 34 34 37 41 44 41 45 44 50 49 48 45 39 35 33
35 32 29 25 24 26 24 18 21 24 25 24 25 22 20 20 21 18 28 27 25 28 36 29 36 39 40 35 36 43 47 44 50 56 45 50 53 47 43 39 37 34 32
32 28 29 28 27 25 22 20 22 25 21 22 23 19 19 23 28 19 27 23 28 38 35 34 41 43 43 41 45 49 52 55 54 61 57 53 47 47 46 43 40 36 33
29 32 30 27 25 20 20 22 19 15 17 15 20 19 16 16 26 20 25 20 30 39 35 41 44 51 49 47 50 52 60 58 59 66 65 52 55 52 51 43 39 37 39
33 28 28 27 24 22 20 24 27 19 21 13 14 14 16 18 23 25 24 20 31 24 19 37 45 50 51 48 49 54 54 60 67 65 61 57 53 49 41 38 39 39 40
33 31 30 24 21 20 17 17 17 15 15 15 10 14 15 15 26 26 30 31 26 13 16 30 38 41 42 46 42 49 55 54 60 59 56 58 54 44 42 43 42 42 39
33 31 24 21 16 15 16 17 15 11 10 12 12 17 17 16 32 34 36 36 30 27 22 12 24 33 33 45 50 55 57 59 60 63 65 44 51 47 42 34 40 40 33
29 26 23 20 16 19 19 18 15 11 12 13 13 17 14 19 37 37 38 39 37 34 30 25 33 29 31 38 42 46 51 63 70 62 53 42 50 41 34 31 31 30 33
Wind_Direction_500mb
263 255 244 239 250 256 257 249 242 247 252 257 254 212 237 243 249 237 256 272 281 281 294 293 257 229 219 215 215 217 219 215 209 207 207 205 197 195 199 212 203 218 229
268 263 251 228 230 247 252 260 241 235 244 245 243 228 238 242 242 260 251 259 267 275 290 289 263 241 223 216 214 215 216 214 210 206 208 201 204 198 207 206 200 224 239
267 259 248 239 229 223 241 242 247 237 229 234 236 243 246 253 242 244 250 255 260 267 277 276 262 249 232 218 214 215 215 216 216 207 207 208 200 206 214 205 200 221 239
260 253 244 233 235 230 223 232 230 236 229 236 238 242 249 234 234 241 245 252 253 259 266 259 260 246 237 223 214 215 216 217 217 212 208 202 202 208 208 209 227 222 226
256 248 242 235 230 234 228 229 233 231 233 240 237 242 248 251 262 249 243 251 247 243 254 264 261 252 234 227 218 217 215 214 211 209 206 206 202 210 209 209 216 214 214
249 247 241 239 221 230 227 229 231 227 236 233 244 245 254 262 263 242 240 246 236 243 244 252 256 236 237 230 220 213 212 210 210 210 202 199 199 204 194 200 196 206 206
240 244 249 228 222 224 230 225 229 232 229 230 234 244 252 269 266 265 246 246 250 256 228 243 252 239 236 232 215 212 208 206 206 208 203 191 183 196 192 197 193 203 207
238 243 242 216 221 218 225 219 225 225 225 224 233 252 258 256 261 271 261 256 257 244 239 239 242 232 228 231 218 207 203 201 204 205 198 190 187 193 192 192 196 203 193
236 241 232 197 225 218 218 222 223 225 221 227 231 219 240 250 250 264 267 264 261 249 235 235 236 224 227 214 219 209 200 201 201 198 194 189 191 192 187 191 196 192 179
236 228 217 192 218 230 210 230 224 225 205 218 217 241 230 252 240 268 268 264 253 240 236 237 224 228 230 218 204 199 204 200 201 197 189 185 186 191 188 191 181 158 163
216 222 208 198 213 197 211 223 224 203 214 214 228 238 261 253 253 254 273 282 266 229 220 221 204 223 236 226 216 178 204 197 193 190 184 182 179 184 195 175 155 158 170
211 219 199 196 207 192 206 209 207 212 218 229 224 226 232 239 238 247 245 266 257 215 205 223 209 205 193 180 166 176 178 179 183 176 179 179 179 181 181 161 158 171 176
211 203 189 193 203 193 202 211 210 220 232 231 230 219 222 240 247 238 241 246 213 193 196 196 215 197 189 157 152 176 173 174 173 177 181 176 176 181 168 164 164 165 166
199 189 188 195 194 188 200 215 223 235 237 239 219 224 227 218 240 248 258 229 189 185 188 184 195 198 193 177 159 175 170 170 173 174 176 173 176 183 173 170 160 164 162
189 189 189 193 187 193 213 228 227 219 214 232 223 231 220 231 246 238 235 226 203 188 188 181 170 170 181 175 168 177 173 170 173 174 178 176 179 181 174 165 167 166 170
184 186 185 187 191 206 217 223 207 207 215 233 222 228 219 225 247 226 234 231 212 198 185 179 170 162 168 167 174 175 170 174 172 171 173 173 181 183 168 169 171 170 166
182 181 181 188 205 216 212 197 189 224 254 219 224 222 225 232 234 231 232 216 205 198 187 156 170 156 163 168 172 178 173 171 169 170 167 165 159 167 167 170 171 170 173
173 172 192 209 203 193 197 209 202 221 241 242 227 217 229 238 232 231 218 194 178 183 175 170 169 169 169 170 175 175 169 169 166 165 166 167 170 171 169 171 172 173 178
166 176 193 189 180 191 203 201 189 216 226 230 235 231 227 227 229 224 207 201 185 188 182 188 177 176 172 170 168 165 163 164 160 162 167 172 172 175 173 174 175 179 183
172 181 180 178 187 195 202 200 207 226 244 233 241 239 238 241 217 230 199 197 185 175 186 192 177 173 164 169 170 161 152 158 163 170 166 168 174 172 174 176 181 185 182
173 169 171 187 184 193 203 205 221 226 234 227 228 233 267 235 222 207 192 189 187 189 189 182 174 168 166 166 174 167 162 165 169 179 176 166 167 175 179 187 186 186 190
165 184 180 187 191 194 215 217 224 222 221 228 225 249 253 208 188 192 188 187 201 200 191 177 175 170 170 176 175 170 168 167 159 175 169 172 177 182 186 187 190 195 194
176 170 183 177 192 211 230 239 230 223 217 239 243 254 196 184 186 188 175 171 179 193 228 196 180 178 172 178 176 176 172 172 171 169 180 166 176 180 187 197 201 202 201
180 177 171 180 199 226 224 203 199 206 223 235 208 192 182 186 182 172 169 167 168 171 177 184 188 180 181 175 180 175 178 174 173 169 176 171 179 190 197 197 199 203 205
179 176 169 180 214 204 170 170 173 188 186 190 190 195 193 195 175 158 163 165 160 150 154 169 173 181 176 176 182 180 178 178 170 176 180 183 184 189 201 205 206 204 220
171 169 166 193 199 163 157 159 155 171 176 188 181 176 172 180 170 167 172 169 158 156 164 160 155 164 168 172 186 191 180 184 180 176 192 195 187 187 199 216 208 225 230
Wind_Speed_850mb
49 53 57 57 57 53 50 47 61 50 38 36 31 32 41 41 34 31 36 34 34 32 30 26 22 30 34 36 37 37 32 27 27 31 40 44 39 43 29 29 29 24 19
55 49 50 60 57 56 49 41 36 47 50 42 29 34 44 40 37 34 35 37 41 32 27 27 24 26 36 39 39 40 39 33 30 34 36 46 42 38 32 29 21 22 22
64 57 54 55 61 60 49 43 47 35 49 46 43 42 44 44 47 41 40 44 39 37 33 35 26 26 30 42 43 42 43 39 33 35 40 45 47 40 34 34 17 16 19
72 65 60 60 56 61 64 53 50 47 51 51 43 42 47 44 44 44 43 46 46 44 39 39 32 28 29 39 43 45 43 41 35 32 38 39 51 37 34 37 23 19 14
70 68 62 60 57 55 56 59 58 52 52 46 49 45 54 58 51 43 45 48 46 35 33 34 30 28 30 32 38 42 41 40 35 31 35 37 44 39 34 33 25 24 16
70 68 62 57 61 55 58 54 53 57 53 49 45 46 51 46 38 43 41 37 44 45 41 42 41 35 30 34 35 41 42 41 38 32 36 34 36 37 35 32 23 28 26
67 70 62 55 53 58 59 53 53 51 47 49 39 45 47 41 29 34 45 49 54 47 42 45 53 38 28 32 38 41 44 40 37 32 35 38 39 35 37 30 28 28 27
68 65 57 51 49 56 50 51 52 55 56 39 45 37 29 26 34 36 35 39 42 35 38 44 40 35 33 38 40 43 45 44 39 32 36 41 41 39 38 30 30 30 25
64 59 50 49 51 48 50 51 53 55 37 34 43 22 8 7 8 20 25 30 33 29 35 45 36 31 30 39 38 41 43 42 38 34 38 44 44 40 37 32 31 25 20
60 52 47 49 47 41 44 34 50 36 43 33 29 26 32 21 11 9 16 21 22 22 30 31 27 27 32 30 29 39 41 41 40 36 41 46 46 41 36 33 26 25 43
49 53 45 50 39 42 36 38 28 34 30 31 31 16 17 19 30 27 18 15 17 18 27 27 18 16 27 36 43 32 39 40 41 42 46 48 44 41 34 31 32 37 52
53 49 44 47 42 44 35 35 27 32 37 28 24 25 27 24 21 26 21 18 13 14 23 25 22 23 24 23 41 35 32 39 41 45 46 47 45 37 32 34 36 38 33
50 46 51 50 45 40 32 30 36 37 32 30 24 18 21 25 17 21 24 16 13 13 15 20 25 23 36 17 26 31 30 36 36 44 46 46 41 38 38 36 42 37 33
49 46 49 43 39 36 30 31 32 29 27 22 27 29 28 21 28 32 27 21 16 13 13 17 22 24 30 29 28 29 30 34 37 40 41 46 44 38 41 45 38 34 41
42 46 47 41 35 30 34 32 24 21 19 16 22 21 28 17 24 25 20 18 20 16 16 19 21 23 28 30 24 25 27 33 41 42 45 48 46 38 43 47 41 44 35
41 46 46 37 36 37 33 24 19 18 21 19 20 19 18 27 27 24 26 19 25 21 18 24 23 23 26 27 31 28 30 35 39 41 43 42 42 46 52 52 47 43 33
44 36 40 40 38 30 24 18 23 24 18 25 26 26 18 17 15 21 20 19 17 26 28 27 28 29 28 28 33 29 32 36 40 39 45 50 44 49 54 51 47 44 32
41 38 35 24 22 20 16 23 25 20 21 20 22 24 24 18 21 17 19 22 23 20 31 35 35 37 30 34 35 34 34 37 40 39 51 49 43 48 47 47 45 39 34
36 33 25 19 22 24 23 22 21 20 19 20 21 22 22 20 20 22 21 24 24 28 27 33 35 36 35 35 34 34 37 41 44 41 45 44 50 49 48 45 39 35 33
35 32 29 25 24 26 24 18 21 24 25 24 25 22 20 20 21 18 28 27 25 28 36 29 36 39 40 35 36 43 47 44 50 56 45 50 53 47 43 39 37 34 32
32 28 29 28 27 25 22 20 22 25 21 22 23 19 19 23 28 19 27 23 28 38 35 34 41 43 43 41 45 49 52 55 54 61 57 53 47 47 46 43 40 36 33
29 32 30 27 25 20 20 22 19 15 17 15 20 19 16 16 26 20 25 20 30 39 35 41 44 51 49 47 50 52 60 58 59 66 65 52 55 52 51 43 39 37 39
33 28 28 27 24 22 20 24 27 19 21 13 14 14 16 18 23 25 24 20 31 24 19 37 45 50 51 48 49 54 54 60 67 65 61 57 53 49 41 38 39 39 40
33 31 30 24 21 20 17 17 17 15 15 15 10 14 15 15 26 26 30 31 26 13 16 30 38 41 42 46 42 49 55 54 60 59 56 58 54 44 42 43 42 42 39
33 31 24 21 16 15 16 17 15 11 10 12 12 17 17 16 32 34 36 36 30 27 22 12 24 33 33 45 50 55 57 59 60 63 65 44 51 47 42 34 40 40 33
29 26 23 20 16 19 19 18 15 11 12 13 13 17 14 19 37 37 38 39 37 34 30 25 33 29 31 38 42 46 51 63 70 62 53 42 50 41 34 31 31 30 33
Wind_Direction_850mb
263 255 244 239 250 256 257 249 242 247 252 257 254 212 237 243 249 237 256 272 281 281 294 293 257 229 219 215 215 217 219 215 209 207 207 205 197 195 199 212 203 218 229
268 263 251 228 230 247 252 260 241 235 244 245 243 228 238 242 242 260 251 259 267 275 290 289 263 241 223 216 214 215 216 214 210 206 208 201 204 198 207 206 200 224 239
267 259 248 239 229 223 241 242 247 237 229 234 236 243 246 253 242 244 250 255 260 267 277 276 262 249 232 218 214 215 215 216 216 207 207 208 200 206 214 205 200 221 239
260 253 244 233 235 230 223 232 230 236 229 236 238 242 249 234 234 241 245 252 253 259 266 259 260 246 237 223 214 215 216 217 217 212 208 202 202 208 208 209 227 222 226
256 248 242 235 230 234 228 229 233 231 233 240 237 242 248 251 262 249 243 251 247 243 254 264 261 252 234 227 218 217 215 214 211 209 206 206 202 210 209 209 216 214 214
249 247 241 239 221 230 227 229 231 227 236 233 244 245 254 262 263 242 240 246 236 243 244 252 256 236 237 230 220 213 212 210 210 210 202 199 199 204 194 200 196 206 206
240 244 249 228 222 224 230 225 229 232 229 230 234 244 252 269 266 265 246 246 250 256 228 243 252 239 236 232 215 212 208 206 206 208 203 191 183 196 192 197 193 203 207
238 243 242 216 221 218 225 219 225 225 225 224 233 252 258 256 261 271 261 256 257 244 239 239 242 232 228 231 218 207 203 201 204 205 198 190 187 193 192 192 196 203 193
236 241 232 197 225 218 218 222 223 225 221 227 231 219 240 250 250 264 267 264 261 249 235 235 236 224 227 214 219 209 200 201 201 198 194 189 191 192 187 191 196 192 179
236 228 217 192 218 230 210 230 224 225 205 218 217 241 230 252 240 268 268 264 253 240 236 237 224 228 230 218 204 199 204 200 201 197 189 185 186 191 188 191 181 158 163
216 222 208 198 213 197 211 223 224 203 214 214 228 238 261 253 253 254 273 282 266 229 220 221 204 223 236 226 216 178 204 197 193 190 184 182 179 184 195 175 155 158 170
211 219 199 196 207 192 206 209 207 212 218 229 224 226 232 239 238 247 245 266 257 215 205 223 209 205 193 180 166 176 178 179 183 176 179 179 179 181 181 161 158 171 176
211 203 189 193 203 193 202 211 210 220 232 231 230 219 222 240 247 238 241 246 213 193 196 196 215 197 189 157 152 176 173 174 173 177 181 176 176 181 168 164 164 165 166
199 189 188 195 194 188 200 215 223 235 237 239 219 224 227 218 240 248 258 229 189 185 188 184 195 198 193 177 159 175 170 170 173 174 176 173 176 183 173 170 160 164 162
189 189 189 193 187 193 213 228 227 219 214 232 223 231 220 231 246 238 235 226 203 188 188 181 170 170 181 175 168 177 173 170 173 174 178 176 179 181 174 165 167 166 170
184 186 185 187 191 206 217 223 207 207 215 233 222 228 219 225 247 226 234 231 212 198 185 179 170 162 168 167 174 175 170 174 172 171 173 173 181 183 168 169 171 170 166
182 181 181 188 205 216 212 197 189 224 254 219 224 222 225 232 234 231 232 216 205 198 187 156 170 156 163 168 172 178 173 171 169 170 167 165 159 167 167 170 171 170 173
173 172 192 209 203 193 197 209 202 221 241 242 227 217 229 238 232 231 218 194 178 183 175 170 169 169 169 170 175 175 169 169 166 165 166 167 170 171 169 171 172 173 178
166 176 193 189 180 191 203 201 189 216 226 230 235 231 227 227 229 224 207 201 185 188 182 188 177 176 172 170 168 165 163 164 160 162 167 172 172 175 173 174 175 179 183
172 181 180 178 187 195 202 200 207 226 244 233 241 239 238 241 217 230 199 197 185 175 186 192 177 173 164 169 170 161 152 158 163 170 166 168 174 172 174 176 181 185 182
173 169 171 187 184 193 203 205 221 226 234 227 228 233 267 235 222 207 192 189 187 189 189 182 174 168 166 166 174 167 162 165 169 179 176 166 167 175 179 187 186 186 190
165 184 180 187 191 194 215 217 224 222 221 228 225 249 253 208 188 192 188 187 201 200 191 177 175 170 170 176 175 170 168 167 159 175 169 172 177 182 186 187 190 195 194
176 170 183 177 192 211 230 239 230 223 217 239 243 254 196 184 186 188 175 171 179 193 228 196 180 178 172 178 176 176 172 172 171 169 180 166 176 180 187 197 201 202 201
180 177 171 180 199 226 224 203 199 206 223 235 208 192 182 186 182 172 169 167 168 171 177 184 188 180 181 175 180 175 178 174 173 169 176 171 179 190 197 197 199 203 205
179 176 169 180 214 204 170 170 173 188 186 190 190 195 193 195 175 158 163 165 160 150 154 169 173 181 176 176 182 180 178 178 170 176 180 183 184 189 201 205 206 204 220
171 169 166 193 199 163 157 159 155 171 176 188 181 176 172 180 170 167 172 169 158 156 164 160 155 164 168 172 186 191 180 184 180 176 192 195 187 187 199 216 208 225 230